Nantucket, MA

7:07 AM EST on February 11, 2016 (GMT -0500)
Nantucket Memorial

Weather History for KACK - November, 2010

Change the Weather History Date:

Thursday, November 4, 2010

  Actual Average Record
Temperature  
Mean Temperature 53 °F -  
Max Temperature 60 °F 58 °F 68 °F (1977)
Min Temperature 46 °F 45 °F 32 °F (1964)
Degree Days  
Heating Degree Days 12    
Growing Degree Days 3 (Base 50)    
Moisture  
Dew Point 52 °F    
Average Humidity 91    
Maximum Humidity 100    
Minimum Humidity 71    
Precipitation  
Precipitation 0.56 in - - ()
Sea Level Pressure  
Sea Level Pressure 29.69 in    
Wind  
Wind Speed 16 mph (SE)    
Max Wind Speed 37 mph    
Max Gust Speed 47 mph    
Visibility 5 miles    
Events Rain    
Averages and records for this station are not official NWS values.
T = Trace of Precipitation, MM = Missing Value Source: NWS Daily Summary

Daily Weather History Graph

Daily Weather History Graph

Search for Another Location

Airport or City:

Trip Planner

Search our weather history database for the weather conditions in past years. The results will help you decide how hot, cold, wet, or windy it might be!

Date:

Astronomy

Nov. 04, 2010 Rise Set
Actual Time 7:15 AM EDT 5:32 PM EDT
Civil Twilight 6:46 AM EDT 6:00 PM EDT
Nautical Twilight 6:13 AM EDT 6:33 PM EDT
Astronomical Twilight 5:41 AM EDT 7:05 PM EDT
Moon 5:22 AM EDT (11/4) 4:14 PM EDT (11/4)
Length of Visible Light 11h 14m
Length of Day
10h 17m
Waning Crescent, 3% of the Moon is Illuminated
Nov 4
Waning Crescent
Nov 6
New
Nov 13
First Quarter
Nov 21
Full
Nov 28
Last Quarter

Hourly Weather History & Observations

Time (EDT) Temp. Windchill Dew Point Humidity Pressure Visibility Wind Dir Wind Speed Gust Speed Precip Events Conditions
12:06 AM 46.4 °F 41.5 °F 37.4 °F 71% 30.05 in 10.0 mi SE 10.4 mph - N/A   Mostly Cloudy
12:34 AM 46.4 °F 41.5 °F 37.4 °F 71% 30.05 in 10.0 mi SE 10.4 mph - N/A   Overcast
12:53 AM 46.9 °F - 37.9 °F 71% 30.05 in 10.0 mi ESE 11.5 mph - N/A   Overcast
1:04 AM 46.4 °F 41.1 °F 39.2 °F 76% 30.04 in 10.0 mi ESE 11.5 mph - N/A   Overcast
1:53 AM 46.9 °F - 39.0 °F 74% 30.02 in 10.0 mi ESE 11.5 mph - N/A   Mostly Cloudy
2:41 AM 48.2 °F - 39.2 °F 71% 30.00 in 10.0 mi ESE 13.8 mph - N/A   Mostly Cloudy
2:53 AM 46.9 °F - 39.9 °F 77% 29.99 in 10.0 mi ESE 13.8 mph - N/A   Mostly Cloudy
3:53 AM 48.9 °F - 42.1 °F 77% 29.96 in 10.0 mi ESE 15.0 mph - N/A   Mostly Cloudy
4:27 AM 48.2 °F - 42.8 °F 82% 29.96 in 10.0 mi ESE 17.3 mph - N/A   Mostly Cloudy
4:53 AM 50.0 °F - 43.0 °F 77% 29.95 in 10.0 mi SE 16.1 mph - N/A   Mostly Cloudy
5:10 AM 50.0 °F - 42.8 °F 76% 29.94 in 10.0 mi ESE 18.4 mph 24.2 mph N/A   Scattered Clouds
5:53 AM 50.0 °F - 44.1 °F 80% 29.93 in 10.0 mi ESE 19.6 mph - N/A   Mostly Cloudy
6:53 AM 50.0 °F - 46.0 °F 86% 29.92 in 10.0 mi ESE 20.7 mph 28.8 mph 0.00 in Rain Light Rain
7:53 AM 50.0 °F - 46.0 °F 86% 29.90 in 6.0 mi ESE 15.0 mph 25.3 mph 0.02 in Rain Light Rain
8:53 AM 51.1 °F - 46.9 °F 86% 29.91 in 8.0 mi ESE 17.3 mph - 0.03 in Rain Light Rain
9:53 AM 51.1 °F - 48.9 °F 92% 29.85 in 8.0 mi East 17.3 mph 26.5 mph 0.04 in Rain Light Rain
10:53 AM 53.1 °F - 50.0 °F 89% 29.78 in 10.0 mi East 23.0 mph 29.9 mph 0.00 in   Mostly Cloudy
11:16 AM 53.6 °F - 50.0 °F 88% 29.76 in 9.0 mi East 23.0 mph 32.2 mph 0.00 in Rain Light Rain
11:53 AM 53.1 °F - 52.0 °F 96% 29.70 in 2.5 mi East 24.2 mph 36.8 mph 0.02 in Rain Light Rain
12:12 PM 53.6 °F - 51.8 °F 94% 29.68 in 3.0 mi East 24.2 mph 35.7 mph 0.03 in Rain Rain
12:53 PM 54.0 °F - 52.0 °F 93% 29.62 in 1.8 mi East 29.9 mph 41.4 mph 0.12 in Rain Light Rain
1:26 PM 53.6 °F - 53.6 °F 100% 29.57 in 2.5 mi ESE 31.1 mph 41.4 mph 0.08 in Rain Rain
1:39 PM 55.4 °F - 53.6 °F 94% 29.56 in 1.2 mi East 27.6 mph 41.4 mph 0.14 in Rain Heavy Rain
1:53 PM 55.0 °F - 54.0 °F 96% 29.57 in 1.2 mi ESE 26.5 mph 41.4 mph 0.19 in Rain Rain
2:08 PM 55.4 °F - 55.4 °F 100% 29.54 in 2.5 mi ESE 36.8 mph 47.2 mph 0.02 in Rain Light Rain
2:22 PM 55.4 °F - 55.4 °F 100% 29.54 in 3.0 mi ESE 31.1 mph 42.6 mph 0.02 in Rain Light Rain
2:53 PM 55.9 °F - 55.0 °F 97% 29.54 in 4.0 mi SE 18.4 mph 33.4 mph 0.02 in Rain Light Rain
3:01 PM 57.2 °F - 55.4 °F 94% 29.53 in 4.0 mi SE 16.1 mph 43.7 mph 0.00 in   Overcast
3:11 PM 57.2 °F - 55.4 °F 94% 29.52 in 4.0 mi ESE 19.6 mph 32.2 mph 0.00 in   Overcast
3:53 PM 60.1 °F - 57.9 °F 93% 29.51 in 3.0 mi SSE 18.4 mph 26.5 mph 0.00 in   Overcast
4:06 PM 59.0 °F - 57.2 °F 94% 29.52 in 3.0 mi SE 18.4 mph - N/A   Overcast
4:13 PM 57.2 °F - 57.2 °F 100% 29.52 in 3.0 mi SSE 17.3 mph - N/A   Overcast
4:53 PM 59.0 °F - 57.9 °F 96% 29.53 in 3.0 mi SSE 20.7 mph 27.6 mph N/A   Overcast
5:12 PM 60.8 °F - 59.0 °F 94% 29.53 in 3.0 mi SSE 20.7 mph - N/A   Overcast
5:16 PM 60.8 °F - 59.0 °F 94% 29.53 in 2.5 mi SSE 19.6 mph 26.5 mph N/A   Overcast
5:23 PM 59.0 °F - 57.2 °F 94% 29.53 in 3.0 mi SSE 19.6 mph 26.5 mph N/A   Overcast
5:28 PM 59.0 °F - 57.2 °F 94% 29.53 in 2.5 mi SSE 19.6 mph 27.6 mph N/A   Overcast
5:53 PM 59.0 °F - 57.9 °F 96% 29.54 in 3.0 mi SSE 19.6 mph - N/A   Overcast
6:53 PM 57.9 °F - 57.0 °F 97% 29.54 in 3.0 mi SSE 15.0 mph - N/A   Overcast
7:00 PM 57.2 °F - 57.2 °F 100% 29.53 in 3.0 mi SSE 11.5 mph - N/A   Overcast
7:53 PM 57.9 °F - 57.0 °F 97% 29.55 in 3.0 mi South 11.5 mph - 0.00 in Rain Light Rain
8:49 PM 57.2 °F - 57.2 °F 100% 29.55 in 2.0 mi South 8.1 mph - 0.01 in Rain Light Rain
8:53 PM 57.9 °F - 57.0 °F 97% 29.55 in 2.0 mi South 8.1 mph - 0.01 in Rain Light Rain
9:09 PM 57.2 °F - 57.2 °F 100% 29.55 in 1.8 mi South 8.1 mph - 0.00 in Rain Light Rain
9:53 PM 57.0 °F - 57.0 °F 100% 29.54 in 1.2 mi SSE 6.9 mph - 0.02 in Rain Light Rain
10:53 PM 57.9 °F - 57.0 °F 97% 29.52 in 1.5 mi SSE 10.4 mph - 0.05 in Rain Light Rain
11:00 PM 57.2 °F - 57.2 °F 100% 29.51 in 2.0 mi SSE 10.4 mph - 0.01 in Rain Light Rain
11:13 PM 57.2 °F - 57.2 °F 100% 29.51 in 2.5 mi SSE 11.5 mph - 0.01 in Rain Light Rain
11:33 PM 57.2 °F - 57.2 °F 100% 29.50 in 1.5 mi SE 10.4 mph - 0.03 in Rain Light Rain
11:48 PM 57.2 °F - 57.2 °F 100% 29.49 in 1.0 mi SE 13.8 mph - 0.03 in Rain Light Rain
11:53 PM 57.9 °F - 57.9 °F 100% 29.50 in 1.0 mi SE 12.7 mph - 0.04 in Rain Light Rain